This demonstration page uses our WeatherBlox Daily Observations layout. Learn more.

Left ArrowRight Arrow

39.51506, -84.39828

Hourly Observations for December 15, 2018

Temp ( °F °C ) Dew Point ( °F °C ) Humidity (%) Winds ( mph kmh ) Pressure ( in mb ) Visibility ( mi km ) Precip ( " mm )
12:15 am 00:15 Mostly Cloudy 48 9 41 4.9 76 76 NE 15 24 30.00 1016 10 16 0.00 0.00
12:35 am 00:35 Cloudy 48 9.1 41 4.9 75 75 NNE 12 19 30.03 1017 10 16 0.00 0.00
12:55 am 00:55 Cloudy 48 9.1 41 5.1 76 76 NE 6 9 30.06 1018 10 16 0.00 0.00
1:15 am 01:15 Cloudy with Light Rain 47 8.5 42 5.8 83 83 Calm 30.09 1019 10 16 0.00 0.00
1:35 am 01:35 Cloudy with Rain 46 8 43 6.3 89 89 NNE 5 7 30.06 1018 7 11 0.03 0.76
1:55 am 01:55 Cloudy with Rain 46 7.7 44 6.8 94 94 NE 8 13 30.06 1018 4 6 0.08 2.03
2:15 am 02:15 Cloudy with Light Rain 46 8 45 7.2 95 95 NE 12 19 30.03 1017 5 8 0.03 0.76
2:35 am 02:35 Cloudy with Light Rain 47 8.1 45 7.3 95 95 NNE 10 17 30.00 1016 7 11 0.04 1.02
2:55 am 02:55 Cloudy with Light Rain 46 7.8 44 6.9 94 94 N 9 15 30.03 1017 10 16 0.04 1.02
3:15 am 03:15 Cloudy with Light Rain 46 7.7 44 6.7 93 93 N 13 20 30.03 1017 10 16 0.00 0.00
3:35 am 03:35 Cloudy with Light Rain 46 7.7 44 6.7 93 93 NNE 12 19 30.03 1017 10 16 0.00 0.00
3:55 am 03:55 Cloudy with Light Rain 46 7.7 44 6.7 93 93 NNE 12 19 30.00 1016 10 16 0.00 0.00
4:15 am 04:15 Cloudy with Light Rain 46 7.7 44 6.7 93 93 NNE 8 13 30.00 1016 7 11 0.00 0.00
4:35 am 04:35 Cloudy with Light Rain 46 7.8 44 6.7 93 93 N 9 15 30.00 1016 7 11 0.00 0.00
4:55 am 04:55 Cloudy with Light Rain 46 7.8 44 6.7 93 93 N 8 13 29.97 1015 7 11 0.00 0.00
5:15 am 05:15 Cloudy with Light Rain 46 7.6 44 6.6 93 93 N 9 15 29.97 1015 7 11 0.00 0.00
5:35 am 05:35 Cloudy with Light Rain 46 7.7 44 6.7 93 93 NNE 15 24 29.94 1014 7 11 0.00 0.00
5:55 am 05:55 Cloudy with Light Rain 46 7.8 44 6.7 93 93 NNE 12 19 29.94 1014 7 11 0.00 0.00
6:15 am 06:15 Cloudy 46 7.7 44 6.5 92 92 NNE 16 26 29.91 1013 7 11 0.00 0.00
6:35 am 06:35 Cloudy 46 7.9 44 6.5 91 91 N 10 17 29.94 1014 7 11 0.00 0.00
6:55 am 06:55 Cloudy 46 7.8 44 6.5 92 92 NNE 9 15 29.94 1014 7 11 0.00 0.00
7:15 am 07:15 Cloudy 47 8.1 44 6.4 89 89 NNE 14 22 29.94 1014 7 11 0.00 0.00
7:35 am 07:35 Cloudy with Light Rain 46 8 43 6.2 89 89 NNE 12 19 29.94 1014 10 16 0.00 0.00
7:55 am 07:55 Cloudy with Light Rain 46 7.9 44 6.4 90 90 N 12 19 29.97 1015 7 11 0.00 0.00
8:15 am 08:15 Cloudy with Light Rain 46 8 44 6.5 90 90 NNE 9 15 29.97 1015 5 8 0.00 0.00
8:35 am 08:35 Cloudy with Light Rain 47 8.1 44 6.7 91 91 NE 8 13 29.97 1015 5 8 0.01 0.25
8:55 am 08:55 Cloudy with Light Rain 47 8.1 44 6.8 92 92 NNE 8 13 29.97 1015 4 6 0.01 0.25
9:15 am 09:15 Cloudy with Light Rain 46 8 45 7 93 93 NNE 8 13 29.97 1015 4 6 0.01 0.25
9:35 am 09:35 Cloudy with Light Rain 46 8 45 7.1 94 94 NNE 5 7 30.00 1016 4 6 0.01 0.25
9:55 am 09:55 Cloudy with Rain 47 8.3 45 7.3 93 93 NNE 7 11 30.00 1016 4 6 0.03 0.76
10:15 am 10:15 Cloudy with Rain 47 8.4 45 7.4 94 94 NNE 7 11 30.00 1016 5 8 0.01 0.25
10:35 am 10:35 Cloudy with Light Rain 47 8.3 45 7.1 92 92 NNE 10 17 30.00 1016 5 8 0.02 0.51
10:55 am 10:55 Cloudy 47 8.4 44 6.7 89 89 NNE 10 17 30.00 1016 7 11 0.02 0.51
11:15 am 11:15 Cloudy with Light Rain 47 8.2 44 6.6 90 90 NNE 12 19 30.00 1016 5 8 0.01 0.25
11:35 am 11:35 Cloudy with Rain 46 8 44 6.5 90 90 NNE 14 22 29.97 1015 4 6 0.02 0.51
11:55 am 11:55 Cloudy with Rain 46 7.6 44 6.4 92 92 NNE 13 20 29.97 1015 3 4 0.05 1.27
12:15 pm 12:15 Cloudy with Rain 45 7.2 43 6.2 93 93 NNE 16 26 29.97 1015 2 3 0.06 1.52
12:35 pm 12:35 Cloudy with Rain 45 7.1 43 6.1 93 93 NNE 15 24 29.94 1014 3 4 0.12 3.05
12:55 pm 12:55 Cloudy with Rain 45 7.1 43 6.1 93 93 NNE 15 24 29.94 1014 3 5 0.19 4.83
1:15 pm 13:15 Cloudy with Heavy Rain 45 7.2 43 6.2 93 93 NNE 15 24 29.91 1013 3 4 0.07 1.78
1:35 pm 13:35 Cloudy with Rain 45 7.2 44 6.4 95 95 NNE 18 30 29.91 1013 2 3 0.16 4.06
1:55 pm 13:55 Cloudy with Heavy Rain 45 7.4 44 6.6 95 95 NNE 14 22 29.91 1013 2 3 0.26 6.60
2:15 pm 14:15 Cloudy with Rain 46 7.6 44 6.9 95 95 NNE 15 24 29.91 1013 2 3 0.08 2.03
2:35 pm 14:35 Cloudy with Rain 46 7.9 45 7.1 95 95 NNE 12 19 29.91 1013 3 4 0.14 3.56
2:55 pm 14:55 Cloudy with Rain 46 8 45 7.2 95 95 NNE 10 17 29.91 1013 3 4 0.18 4.57
3:15 pm 15:15 Cloudy with Rain 47 8.1 45 7.3 95 95 NNE 12 19 29.88 1012 3 5 0.03 0.76
3:35 pm 15:35 Cloudy with Light Rain 47 8.3 46 7.5 95 95 NNE 10 17 29.91 1013 4 6 0.05 1.27
3:55 pm 15:55 Cloudy with Light Rain 47 8.5 46 7.8 95 95 NNE 9 15 29.88 1012 3 5 0.08 2.03
4:15 pm 16:15 Cloudy with Light Rain 47 8.6 46 7.9 95 95 NE 6 9 29.91 1013 3 4 0.01 0.25
4:35 pm 16:35 Cloudy with Light Rain 47 8.6 47 8.1 97 97 NE 5 7 29.88 1012 2 3 0.01 0.25
4:55 pm 16:55 Cloudy with Drizzle 48 8.7 47 8.2 97 97 NNE 7 11 29.88 1012 2 3 0.02 0.51
5:15 pm 17:15 Cloudy with Drizzle 48 8.8 47 8.4 97 97 N 8 13 29.88 1012 4 6 0.00 0.00
5:35 pm 17:35 Cloudy 48 9.1 47 8.6 97 97 N 10 17 29.88 1012 7 11 0.00 0.00
5:55 pm 17:55 Cloudy with Light Rain 49 9.3 47 8.6 95 95 NNE 12 19 29.88 1012 10 16 0.00 0.00
6:15 pm 18:15 Cloudy with Rain 49 9.4 47 8.5 94 94 NNE 10 17 29.88 1012 7 11 0.04 1.02
6:35 pm 18:35 Cloudy with Light Rain 49 9.3 47 8.5 95 95 NE 6 9 29.88 1012 10 16 0.07 1.78
6:55 pm 18:55 Cloudy 49 9.3 47 8.4 94 94 NNE 7 11 29.91 1013 10 16 0.07 1.78
7:15 pm 19:15 Cloudy 49 9.2 47 8.3 94 94 N 5 7 29.91 1013 10 16 0.00 0.00
7:35 pm 19:35 Cloudy with Rain 47 8.5 46 7.9 96 96 NNW 8 13 29.91 1013 2 3 0.01 0.25
7:55 pm 19:55 Cloudy with Light Rain 46 7.7 45 7.2 97 97 N 7 11 29.91 1013 2 3 0.04 1.02
8:15 pm 20:15 Cloudy with Light Rain 45 7 44 6.6 97 97 N 8 13 29.91 1013 2 3 0.03 0.76
8:35 pm 20:35 Cloudy with Drizzle 44 6.5 43 6 97 97 N 10 17 29.91 1013 4 6 0.03 0.76
8:55 pm 20:55 Cloudy with Drizzle 43 6.2 42 5.6 96 96 N 9 15 29.94 1014 4 6 0.04 1.02
9:15 pm 21:15 Cloudy with Drizzle 43 5.9 41 5.2 95 95 N 13 20 29.94 1014 4 6 0.00 0.00
9:35 pm 21:35 Cloudy with Drizzle 42 5.6 41 4.9 95 95 N 9 15 29.94 1014 4 6 0.00 0.00
9:55 pm 21:55 Cloudy with Mist and Fog 42 5.5 41 4.8 95 95 N 12 19 29.94 1014 4 6 0.00 0.00
10:15 pm 22:15 Cloudy with Mist and Fog 42 5.4 40 4.7 95 95 N 10 17 29.94 1014 5 8 0.00 0.00
10:35 pm 22:35 Cloudy 41 5.2 40 4.5 95 95 N 12 19 29.94 1014 7 11 0.00 0.00
10:55 pm 22:55 Cloudy 41 5.1 40 4.3 95 95 N 12 19 29.94 1014 10 16 0.00 0.00
11:15 pm 23:15 Cloudy 41 5 40 4.2 95 95 N 13 20 29.94 1014 7 11 0.00 0.00
11:35 pm 23:35 Cloudy with Mist and Fog 41 4.9 40 4.2 95 95 N 13 20 29.94 1014 5 8 0.00 0.00
11:55 pm 23:55 Cloudy with Mist and Fog 41 4.9 39 4.1 95 95 N 12 19 29.94 1014 5 8 0.00 0.00

Powered by AerisWeather